Location: New Mesquite
(33.1168°N, 96.4336°W)
Time: 06:37:09
(UTC+00:00)

H-2A R/B (2) - Pass Details

Date: 08 December 2021
Orbit: 446 x 34385 km, 28.7° (Epoch: 17 January)

Event Time Altitude Azimuth Distance (km) Brightness Sun altitude
Exits shadow 12:36:34 - 252° (WSW) 2,887 4.5 -8.5°
Reaches altitude 10° 12:37:34 10° 249° (WSW) 2,472 4.2 -8.3°
Maximum altitude 12:42:42 67° 166° (SSE) 1,797 4.0 -7.3°
Drops below altitude 10° 20:19:04 10° 140° (SE) 30,309 10.4 27.1°
Sets 21:18:03 0° 139° (SE) 22,730 9.5 19.5°
